This demonstration page uses our WeatherBlox Daily Observations layout. Learn more.

Left ArrowRight Arrow

44.8408, -93.29828

Hourly Observations for November 29, 2019

Temp ( °F °C ) Dew Point ( °F °C ) Humidity (%) Winds ( mph kmh ) Pressure ( in mb ) Visibility ( mi km ) Precip ( " mm )
12:53 am 00:53 Cloudy 28 -2.2 25 -3.9 88 88 SE 6 9 30.44 1031 10 16 0.00 0.00
1:22 am 01:22 Cloudy 28 -2.2 25 -3.9 88 88 SE 5 7 30.45 1031 10 16 0.00 0.00
1:53 am 01:53 Cloudy 29 -1.7 25 -3.9 85 85 E 5 7 30.44 1031 10 16 0.00 0.00
2:53 am 02:53 Cloudy 29 -1.7 25 -3.9 85 85 ESE 6 9 30.43 1031 10 16 0.00 0.00
3:53 am 03:53 Cloudy with Mist and Fog 29 -1.7 26 -3.3 89 89 E 6 9 30.42 1030 5 8 0.00 0.00
4:25 am 04:25 Cloudy with Light Snow 29 -1.7 26 -3.3 89 89 ESE 6 9 30.44 1031 4 6 0.00 0.00
4:53 am 04:53 Cloudy with Mist and Fog 29 -1.7 26 -3.3 89 89 ESE 6 9 30.42 1030 5 8 0.00 0.00
5:10 am 05:10 Cloudy with Mist and Fog 29 -1.7 26 -3.3 89 89 ESE 7 11 30.43 1031 6 10 0.00 0.00
5:53 am 05:53 Cloudy with Mist and Fog 29 -1.7 26 -3.3 89 89 SE 7 11 30.41 1030 6 10 0.00 0.00
6:04 am 06:04 Cloudy 29 -1.7 26 -3.3 89 89 SE 6 9 30.43 1031 7 11 0.00 0.00
6:19 am 06:19 Cloudy 29 -1.7 26 -3.3 89 89 SE 6 9 30.43 1031 7 11 0.00 0.00
6:53 am 06:53 Cloudy with Mist and Fog 29 -1.7 27 -2.8 92 92 ESE 7 11 30.41 1030 3 5 0.00 0.00
7:01 am 07:01 Cloudy with Light Snow 29 -1.7 27 -2.8 92 92 ESE 7 11 30.43 1031 3 4 0.00 0.00
7:19 am 07:19 Cloudy with Mist and Fog 30 -1.1 27 -2.8 88 88 SE 8 13 30.42 1030 3 5 0.01 0.25
7:38 am 07:38 Cloudy with Light Snow 29 -1.7 27 -2.8 92 92 ESE 7 11 30.42 1030 3 4 0.01 0.25
7:53 am 07:53 Cloudy with Light Snow 29 -1.7 27 -2.8 92 92 SE 8 13 30.40 1029 3 4 0.01 0.25
8:44 am 08:44 Cloudy with Mist and Fog 30 -1.1 27 -2.8 88 88 ESE 8 13 30.41 1030 4 6 0.00 0.00
8:53 am 08:53 Cloudy with Mist and Fog 30 -1.1 27 -2.8 88 88 ESE 8 13 30.39 1029 5 8 0.00 0.00
9:53 am 09:53 Cloudy 31 -0.6 27 -2.8 85 85 ESE 9 15 30.37 1029 7 11 0.01 0.25
10:53 am 10:53 Cloudy 31 -0.6 28 -2.2 89 89 ESE 9 15 30.37 1028 7 11 0.00 0.00
11:20 am 11:20 Cloudy with Mist and Fog 32 0 28 -2.2 85 85 ESE 8 13 30.37 1028 6 10 0.00 0.00
11:53 am 11:53 Cloudy 32 0 28 -2.2 85 85 SE 7 11 30.33 1027 7 11 0.00 0.00
12:42 pm 12:42 Cloudy 32 0 28 -2.2 85 85 ESE 10 17 30.32 1027 10 16 0.00 0.00
12:53 pm 12:53 Cloudy 32 0 28 -2.2 85 85 SE 7 11 30.30 1026 8 13 0.00 0.00
1:06 pm 13:06 Cloudy 33 0.6 28 -2.2 82 82 SE 9 15 30.31 1027 7 11 0.00 0.00
1:53 pm 13:53 Cloudy 32 0 28 -2.2 85 85 ESE 8 13 30.29 1026 7 11 0.00 0.00
2:53 pm 14:53 Cloudy 33 0.6 28 -2.2 82 82 E 10 17 30.27 1025 7 11 0.00 0.00
3:00 pm 15:00 Cloudy 33 0.6 28 -2.2 82 82 E 9 15 30.27 1025 10 16 0.00 0.00
3:28 pm 15:28 Cloudy 33 0.6 28 -2.2 82 82 ESE 12 19 30.27 1025 10 16 0.00 0.00
3:39 pm 15:39 Cloudy 33 0.6 28 -2.2 82 82 E 9 15 30.26 1025 10 16 0.00 0.00
3:53 pm 15:53 Cloudy 33 0.6 28 -2.2 82 82 ESE 10 17 30.24 1024 10 16 0.00 0.00
4:06 pm 16:06 Cloudy 33 0.6 28 -2.2 82 82 ESE 12 19 30.25 1025 10 16 0.00 0.00
4:53 pm 16:53 Cloudy 33 0.6 28 -2.2 82 82 ESE 10 17 30.25 1024 10 16 0.00 0.00
5:53 pm 17:53 Cloudy 33 0.6 28 -2.2 82 82 E 12 19 30.21 1023 10 16 0.00 0.00
6:53 pm 18:53 Cloudy 33 0.6 28 -2.2 82 82 E 12 19 30.18 1022 10 16 0.00 0.00
7:38 pm 19:38 Cloudy 33 0.6 28 -2.2 82 82 E 12 19 30.17 1022 10 16 0.00 0.00
7:53 pm 19:53 Cloudy 33 0.6 28 -2.2 82 82 ESE 14 22 30.16 1021 10 16 0.00 0.00
8:53 pm 20:53 Cloudy 33 0.6 28 -2.2 82 82 E 12 19 30.14 1021 10 16 0.00 0.00
9:19 pm 21:19 Cloudy 33 0.6 28 -2.2 82 82 E 12 19 30.14 1021 10 16 0.00 0.00
9:53 pm 21:53 Cloudy 33 0.6 28 -2.2 82 82 E 9 15 30.13 1020 7 11 0.00 0.00
10:26 pm 22:26 Cloudy with Light Snow 32 0 29 -1.7 88 88 E 8 13 30.15 1021 2 3 0.00 0.00
10:37 pm 22:37 Cloudy with Light Snow 32 0 29 -1.7 88 88 E 8 13 30.16 1021 1 2 0.00 0.00
10:53 pm 22:53 Cloudy with Light Snow 32 0 29 -1.7 88 88 E 7 11 30.14 1021 1 2 0.01 0.25
11:09 pm 23:09 Mostly Cloudy with Light Snow 32 0 29 -1.7 88 88 E 8 13 30.14 1021 1 1 0.02 0.51
11:17 pm 23:17 Mostly Cloudy with Light Snow 31 -0.6 29 -1.7 92 92 E 10 17 30.14 1021 1 1 0.03 0.76
11:31 pm 23:31 Cloudy with Light Snow 31 -0.6 29 -1.7 92 92 E 10 17 30.12 1020 1 2 0.04 1.02
11:47 pm 23:47 Cloudy with Light Snow 30 -1 28 -2 93 93 E 12 19 30.11 1020 1 1 0.05 1.27
11:53 pm 23:53 Cloudy with Light Snow 31 -0.6 29 -1.7 92 92 E 13 20 30.09 1019 1 2 0.05 1.27

Powered by AerisWeather